Вернуться в каталог

STARLINK-35892

АктивенСвязьVLEO
NORAD 67115·PAYLOAD·🇺🇸 United States

Запущен Dec 15, 2025 с Cape Canaveral Space Force Station

Loading…

Ближайшие Пролёты (ближайшие 24 часа)

TLE

СвежийSource: CelesTrak SupGP

Эпоха: Sep 14, 2026, 14:32 UTC

1 67115C 25299P   26257.60604167  .00016261  00000+0  58926-3 0  2574
2 67115  42.9998 181.8617 0001500 263.6635   8.5444 15.27555099    16

Отслеживайте STARLINK-35892 в реальном времени с AllMySat

Download on the App Store